Home   Weather   Trier   Past weeks

Flag for Germany Past Weather in Trier, Rhineland-Palatinate, Germany — Yesterday and Last 2 Weeks

Now
62 °F

Partly sunny.


Feels Like: 62 °F
Forecast: 51 / 77 °F
Wind: 5 mph from East

Location: Spangdahlem

Current Time: Aug 31, 2016 at 10:06:01 AM

Latest Report: Aug 31, 2016 at 8:58 AM


Visibility: N/A

Pressure: 30.12 "Hg

Humidity: 64%

Dew Point: 49 °F

Location of TrierLocation

Past Weather in Trier — Graph

°F

Trier Temperature Yesterday

Maximum temperature yesterday: 73 °F (at 2:58 PM)
Minimum temperature yesterday: 52 °F (at 6:58 AM)
Average temperature yesterday: 63 °F

High & Low Weather Summary for the Past Weeks

 TemperatureHumidityPressure
High92 °F (Aug 26, 3:58 PM)100% (Aug 18, 9:58 PM)30.35 "Hg (Aug 18, 9:58 PM)
Low52 °F (Aug 22, 5:58 AM)32% (Aug 17, 5:58 PM)29.76 "Hg (Aug 18, 3:58 PM)
Average67 °F71%30.03 "Hg
* Reported Aug 16 8:58 AM — Aug 31 8:58 AM, Trier, Weather by CustomWeather, © 2016

Note: Actual official high and low records may vary slightly from our data, if they occured in-between our weather recording intervals... More about our weather records

Advertising

Trier Weather History for the Previous 24 Hours

Scroll right to see more
 ConditionsComfort  
Time TempWeatherWind HumidityBarometerVisibility
8:58 AM
Wed, Aug 31
63 °FPartly sunny.5 mph64%30.12 "HgN/A
7:58 AM58 °FPartly sunny.5 mph68%30.12 "HgN/A
6:58 AM57 °FPassing clouds.No wind68%30.11 "HgN/A
5:58 AM57 °FPassing clouds.No wind67%30.11 "HgN/A
4:58 AM56 °FClear.No wind68%30.13 "HgN/A
3:58 AM57 °FPassing clouds.2 mph66%30.12 "HgN/A
2:58 AM58 °FClear.1 mph65%30.13 "HgN/A
1:58 AM57 °FClear.6 mph66%30.16 "HgN/A
12:58 AM58 °FClear.9 mph64%30.16 "HgN/A
11:58 PM
Tue, Aug 30
60 °FClear.6 mph60%30.16 "HgN/A
10:58 PM61 °FClear.3 mph59%30.18 "HgN/A
9:58 PM63 °FClear.5 mph59%30.18 "HgN/A
8:58 PM64 °FSunny.9 mph55%30.18 "HgN/A
7:58 PM66 °FSunny.8 mph54%30.17 "HgN/A
6:58 PM72 °FSunny.8 mph47%30.17 "HgN/A
5:58 PM73 °FSunny.7 mph41%30.18 "HgN/A
4:58 PM73 °FSunny.7 mph40%30.20 "HgN/A
3:58 PM73 °FSunny.9 mph42%30.21 "HgN/A
2:58 PM73 °FSunny.10 mph44%30.22 "HgN/A
1:58 PM71 °FSunny.8 mph48%30.24 "HgN/A
12:58 PM69 °FSunny.7 mph55%30.25 "HgN/A
11:58 AM68 °FSunny.12 mph58%30.26 "HgN/A
11:00 AM64 °FPartly sunny.9 mph68%30.32 "HgN/A
10:58 AM64 °FScattered clouds.10 mph69%30.27 "HgN/A
Weather by CustomWeather, © 2016

See weather overviewHow to use our weather pages